Volver al catálogo

COSMOS 1980

ActivoMilitarLEO
NORAD 19649·PAYLOAD·🇷🇺 Russia

Lanzado Nov 23, 1988 desde Baikonur Cosmodrome

Loading…

Próximos Pases (próximas 24 horas)

TLE

ActualizadoSource: Space-Track

Época: Sep 14, 2026, 03:28 UTC

1 19649U 88102A   26257.14457382 -.00000226  00000-0 -91507-4 0  9992
2 19649  71.0008 178.1881 0007283 237.5783 122.4636 14.15229575951804

Sigue COSMOS 1980 en tiempo real con AllMySat

Download on the App Store